User: anonymous   Login
Location: Pleiades Observatory
(40.1297°N, 91.5238°W)
Time: 08:16:07
(UTC-06:00)
Language:

Cosmos 1842 Rocket - Orbit

View from above orbital plane
View from above orbital plane
View from above satellite
View from above satellite

Ground track
Ground track

The orbit data is extracted from the following two-line orbital elements,

1 17912U 87038B   15024.48081994  .00000352  00000-0  40761-4 0  5720
2 17912 082.5042 150.9009 0019707 227.0523 132.9040 14.82587625498101
Epoch (UTC): 24 January 2015 11:32:22
Eccentricity: 0.0019707
inclination: 82.5042°
perigee height: 607 km
apogee height: 635 km
right ascension of ascending node: 150.9009°
argument of perigee: 227.0523°
revolutions per day: 14.82587625
mean anomaly at epoch: 132.9040°
orbit number at epoch: 49810

The dashed part of the orbit path shows where the satellite is in the earth's shadow,  

DLR